Flag for Netherlands

Past Weather in Maastricht, Netherlands — Yesterday and Last 2 Weeks

Now
64 °F

Scattered clouds.


Feels Like: 64 °F
Forecast: 71 / 50 °F
Wind: 5 mph from Northwest

Location: Maastricht Airport Zuid Limburg

Current Time: Jul 11, 2020 at 3:49:35 pm

Latest Report: Jul 11, 2020 at 2:55 pm


Visibility: N/A

Pressure: 30.27 "Hg

Humidity: 52%

Dew Point: 46 °F

Location of MaastrichtLocation

Past Weather in Maastricht — Graph

°F

Maastricht Temperature Yesterday

Maximum temperature yesterday: 66 °F (at 1:55 am)
Minimum temperature yesterday: 55 °F (at 11:55 pm)
Average temperature yesterday: 63 °F

High & Low Weather Summary for the Past Weeks

 TemperatureHumidityPressure
High86 °F (Jun 26, 1:55 pm)100% (Jul 1, 4:25 am)30.27 "Hg (Jul 1, 4:25 am)
Low48 °F (Jul 11, 3:25 am)38% (Jun 26, 1:55 pm)29.74 "Hg (Jul 1, 4:25 am)
Average63 °F74%29.94 "Hg
* Reported Jun 26 1:25 pm — Jul 11 1:55 pm, Maastricht. Weather by CustomWeather, © 2020

Note: Actual official high and low records may vary slightly from our data, if they occured in-between our weather recording intervals... More about our weather records

Maastricht Weather History for the Previous 24 Hours

Scroll right to see more
 ConditionsComfort  
Time TempWeatherWind HumidityBarometerVisibility
1:55 pm
Sat, Jul 11
66 °FClear.5 mph52%30.27 "HgN/A
1:25 pm64 °FBroken clouds.5 mph56%30.27 "HgN/A
12:55 pm64 °FClear.5 mph56%30.27 "HgN/A
12:25 pm64 °FMild.5 mph56%30.27 "HgN/A
11:55 am63 °FPassing clouds.2 mph59%30.24 "HgN/A
11:25 am61 °FBroken clouds.5 mph63%30.24 "HgN/A
10:55 am61 °FPartly sunny.2 mph68%30.24 "HgN/A
10:25 am61 °FBroken clouds.5 mph63%30.24 "HgN/A
9:55 am61 °FPassing clouds.3 mph68%30.24 "HgN/A
9:25 am59 °FCool.3 mph72%30.24 "HgN/A
8:55 am57 °FCool.5 mph82%30.24 "HgN/A
8:25 am55 °FCool.3 mph82%30.21 "HgN/A
7:55 am54 °FCool.3 mph88%30.21 "HgN/A
7:25 am52 °FCool.5 mph94%30.21 "HgN/A
6:55 am50 °FCool.6 mph94%30.21 "HgN/A
6:25 am48 °FCool.3 mph100%30.18 "HgN/A
5:55 am48 °FScattered clouds.2 mph94%30.18 "HgN/A
5:25 am48 °FPartly cloudy.2 mph94%30.18 "HgN/A
4:55 am48 °FPassing clouds.2 mph94%30.18 "HgN/A
4:25 am48 °FPassing clouds.2 mph94%30.18 "HgN/A
3:55 am50 °FCool.2 mph94%30.18 "HgN/A
3:25 am48 °FPassing clouds.2 mph100%30.15 "HgN/A
2:55 am50 °FCool.2 mph94%30.15 "HgN/A
2:25 am50 °FCool.2 mph94%30.15 "HgN/A
1:55 am52 °FCool.2 mph88%30.15 "HgN/A
1:25 am52 °FCool.3 mph88%30.15 "HgN/A
12:55 am54 °FCool.5 mph82%30.12 "HgN/A
12:25 am54 °FCool.3 mph82%30.12 "HgN/A
11:55 pm
Fri, Jul 10
55 °FPassing clouds.5 mph82%30.12 "HgN/A
11:25 pm57 °FPassing clouds.6 mph77%30.12 "HgN/A
10:55 pm59 °FOvercast.5 mph72%30.09 "HgN/A
10:25 pm59 °FMostly cloudy.6 mph72%30.09 "HgN/A
9:55 pm59 °FClear.6 mph72%30.07 "HgN/A
9:25 pm61 °FScattered clouds.7 mph68%30.07 "HgN/A
8:55 pm61 °FBroken clouds.7 mph72%30.07 "HgN/A
8:25 pm63 °FScattered clouds.7 mph64%30.07 "HgN/A
7:55 pm63 °FOvercast.7 mph68%30.07 "HgN/A
7:25 pm63 °FBroken clouds.9 mph59%30.04 "HgN/A
6:55 pm64 °FBroken clouds.7 mph64%30.04 "HgN/A
6:25 pm64 °FBroken clouds.8 mph64%30.04 "HgN/A
5:55 pm64 °FBroken clouds.9 mph64%30.04 "HgN/A
5:25 pm64 °FBroken clouds.10 mph64%30.04 "HgN/A
4:55 pm64 °FMostly cloudy.10 mph64%30.01 "HgN/A
4:25 pm64 °FBroken clouds.12 mph68%30.01 "HgN/A
3:55 pm66 °FScattered clouds.12 mph68%30.01 "HgN/A
3:25 pm63 °FPartly sunny.14 mph77%29.98 "HgN/A
Weather by CustomWeather, © 2020

See weather overview